Reflectivity
-19 -20 -19 -20 -5 -20 -20 -20 -20 -7 -19 -20 12 33 29 30 0 -20 -20 -20 -20 -20 -20 -20 -20 -20 -20 -20 -20 -20 -20 -20 -20 -20 -20 -20 -20 -20 -20 -20 -20 -20 -20 -20
-20 -20 -20 -20 -20 -20 -20 -20 -20 -20 -20 -20 26 -6 -20 -16 -12 -20 -20 -20 -20 -20 -20 -20 -20 -20 -20 -20 -20 -20 -20 -20 -20 -17 -20 -20 -20 -20 -20 -20 -20 -20 -18 -20
-20 -20 -15 -20 -20 -20 -20 -20 -20 -20 -20 -20 -20 -15 -20 -20 -20 -20 -20 -20 -20 -20 -20 -20 -20 -20 -20 -20 -20 -9 -20 -20 -20 -20 -20 -20 -20 -20 -20 -18 4 -20 -20 -20
-20 -14 -20 -20 -20 -20 -20 -20 -20 -20 -20 -20 -20 -20 -20 -20 -20 -20 -20 -20 -20 -20 -20 -20 -20 -20 -20 -20 -20 -20 -20 -20 -20 -20 -20 -20 -20 -20 -20 -20 -20 9 -19 -20
-20 -20 -20 -20 -20 -20 -20 -20 -11 -20 -20 -20 -20 -20 -20 -20 -20 -20 -20 -20 -20 -20 -20 -20 -20 -20 -20 -20 -20 -20 -20 -20 -20 -20 -20 -20 -20 -20 -20 -20 -20 -4 -13 -11
-20 -20 -20 -20 -20 -20 -12 -6 -16 2 -20 -20 -20 -20 -20 -20 -20 -20 -20 -20 -20 -20 -20 -20 -20 -20 -20 -20 -20 -20 -20 -20 -20 -20 -20 -20 -20 -20 -20 -20 -20 -17 -5 -20
-20 -20 -20 -20 -20 -20 -20 5 -2 -16 -20 -20 -20 -20 -20 -20 -20 -20 -20 -20 -20 -20 -20 -20 -20 -20 -20 -20 -20 -20 -20 -20 -20 -20 -20 -20 -20 -20 -20 -20 -20 -10 -20 -20
-20 -20 -20 -20 -20 -20 -20 3 -20 -18 -18 -20 -20 -20 -20 -20 -20 -20 -20 -20 -20 -20 -20 -20 -20 -20 -17 -16 -20 -4 4 -15 -20 -4 -20 -20 -20 -20 -20 -20 -20 -20 -20 -20
9 5 -19 -20 -20 -20 -20 -4 -20 -13 -5 -20 -20 1 -20 -20 -20 -20 -20 -20 -20 -20 -20 -20 -20 -20 -15 -20 -20 7 12 -7 19 4 -20 -20 -20 -20 -20 -20 -20 -20 -20 -20
4 6 10 -10 -20 -20 -20 -20 -20 -13 4 -20 -20 0 -20 -10 -16 -20 -20 -20 -20 -20 -20 -20 -20 -20 -20 -20 -19 -11 11 26 9 -17 -14 -20 -20 -20 -20 -20 -20 -20 -20 -20
9 5 -10 4 6 -4 -20 -20 -20 -20 0 -20 -20 -20 -12 -19 -4 -13 -20 -20 -20 -20 -20 -20 -20 -20 -20 -20 -20 -20 -19 -17 -14 -6 -16 -20 -20 -20 -20 -20 -20 -20 -20 -20
-19 9 -16 -20 -18 3 -17 -20 -20 9 4 -20 -20 -20 -20 -20 -14 -17 -20 -19 -20 -20 -20 -20 -20 -20 -20 -20 -20 -20 -20 -20 -20 -20 -20 -20 -20 -20 -20 -20 -20 -20 -20 -20
0 9 8 12 9 -19 2 -20 -20 -2 -15 -20 -18 -20 -20 -20 -20 -20 8 -9 -20 -20 -20 -20 -20 -19 -17 -20 -20 -20 -20 -15 -11 -17 -20 -20 -20 -20 -20 -20 -20 -20 -20 -20
-20 -16 -12 10 14 11 7 -20 -20 9 -17 -3 4 -15 -20 -20 -20 -18 -13 -17 -20 -20 -20 -20 -20 -19 -20 -20 -20 -20 -20 -18 -15 -20 -20 -20 -20 -20 -20 -20 -20 -20 -20 -20
-9 6 -20 3 15 10 3 -20 -20 -13 6 12 17 24 11 -20 -20 -9 8 -2 -20 -20 -20 -20 -20 -20 -16 -20 -4 -20 -20 -20 -20 -20 9 -17 -20 -20 -20 -20 -20 -20 -20 -20
-20 -9 13 8 13 22 32 -15 -20 12 14 -6 23 31 15 -20 -20 -20 -19 -20 -20 -15 5 -16 -14 -20 12 2 -5 -2 -20 -20 -20 -20 -11 -20 -20 -20 -20 -20 -20 -20 -20 -20
2 9 5 -7 -15 3 22 -15 6 20 25 28 30 32 -3 0 -20 -20 -20 -20 -20 -20 6 -20 -5 -2 10 1 1 -20 -20 -20 -20 -20 -20 -20 -20 -20 -20 -20 -20 -20 -20 -20
-1 2 -20 -20 18 -20 7 -20 -3 16 32 37 30 29 23 0 -14 -13 -12 0 -12 -18 -18 8 -11 -18 -4 -3 -19 18 20 -16 -20 -20 -20 -20 -20 -20 -20 -20 -20 -20 1 -20
-20 -20 -20 -20 -17 -1 9 15 5 28 29 27 33 22 28 19 9 -4 0 -18 -13 -20 -12 -17 -4 -20 -18 -14 -16 -20 -15 -13 -20 -20 -20 -20 -20 -20 -20 -20 -20 -20 24 -16
-20 -20 -20 8 -20 -20 11 31 31 30 31 33 38 3 -8 -3 -2 -2 -10 -7 0 6 16 -16 -11 -19 -20 -20 -20 -20 -20 -20 -20 -20 -20 -20 -20 -20 -20 -20 -20 -20 25 -2
-20 -20 -20 -20 -14 -0 15 20 8 23 24 21 2 -16 -20 -20 1 -13 -9 -20 -20 -8 -0 -20 -20 -20 -20 -20 -20 -20 -20 -20 -20 -20 -20 -20 -20 -20 -20 -20 -20 -20 -20 25
-19 -1 -20 -6 21 20 8 -17 16 3 17 -20 -11 -20 -20 -20 -20 -20 -20 -19 -3 -10 -20 -20 -19 -20 -20 -20 -20 -20 -20 -14 -20 -20 -20 -20 -20 -20 -20 -20 -20 -20 -20 -20
-3 3 -16 -14 -16 -19 -17 -20 -13 4 13 -14 -17 -20 -20 -20 -20 -20 -16 -13 -20 -20 -20 -20 -20 -20 -20 -20 -20 -20 -20 -15 5 -19 10 -20 -20 -20 -15 3 -10 -20 -20 17
-20 -20 -20 -20 -5 -11 -20 -20 -20 -9 20 -1 -20 -20 -20 -20 -20 -14 -20 -20 -20 -20 -2 -20 -20 -20 -20 -20 -20 -20 4 -5 23 15 21 -2 14 3 21 21 12 -4 19 29
-20 -20 -20 -20 -20 -14 -10 -7 -13 -13 0 -9 -17 -15 -18 -20 -20 -20 -20 -20 -20 -20 -20 -14 -20 -20 -20 -20 -20 -20 -11 9 -13 25 -20 -4 24 16 25 31 24 7 -6 -18
-20 -18 -20 -17 -20 -16 -1 5 -20 -20 -14 -2 -8 20 -18 -16 -5 -9 2 -20 -20 -20 -20 -20 -20 -20 -20 -20 -20 -20 -20 -11 -3 -13 8 -3 10 18 9 -6 -0 7 8 -13
-19 -7 -20 -20 -20 -20 -20 -19 -15 -20 15 17 13 0 -20 -8 -18 -20 4 -20 -20 -20 -20 -20 -20 -20 -20 -20 -20 -20 -20 -20 -20 -20 -20 -20 -9 -20 -18 -1 9 9 -13 -20
Wind_Speed
25 27 28 30 29 23 8 2 4 4 5 4 1 2 3 5 6 3 3 5 8 10 10 5 6 8 1 12 12 8 4 5 4 10 6 8 4 5 5 4 6 5 2 11
23 26 28 30 30 18 3 3 2 2 3 4 3 5 1 5 8 6 5 6 6 13 7 6 4 5 3 9 8 9 6 1 1 4 3 2 5 7 6 8 0 13 4 10
23 24 26 28 29 17 3 1 3 4 2 1 2 4 4 5 6 5 5 5 11 5 4 2 7 3 2 4 4 7 8 4 6 6 3 4 3 5 6 9 6 10 17 26
23 24 27 28 29 23 3 2 1 1 3 2 2 2 3 4 3 4 6 6 4 6 3 4 5 5 4 4 2 4 4 2 2 6 8 5 8 10 11 12 16 12 23 22
21 23 24 25 29 22 4 3 4 5 4 1 2 2 2 3 3 5 4 5 7 8 5 1 5 7 5 5 2 3 2 2 1 7 10 8 7 12 14 15 18 19 24 27
19 21 22 23 25 15 3 3 2 2 6 2 1 3 4 1 2 4 3 2 5 6 3 4 3 4 4 8 8 6 6 4 1 6 5 7 3 7 10 6 8 9 10 14
18 18 19 20 22 18 2 2 2 2 4 1 3 1 3 2 3 3 2 4 4 2 2 3 3 3 2 6 6 7 6 4 1 4 5 1 1 6 7 10 11 10 11 14
14 16 17 17 18 19 2 3 3 2 3 4 6 2 2 3 3 1 3 3 1 2 2 2 2 1 2 4 6 8 5 4 2 2 2 7 4 5 5 6 7 4 6 8
12 12 14 15 15 16 4 0 2 2 3 2 6 5 5 4 2 1 2 2 3 2 1 1 4 3 1 3 3 5 7 4 3 1 3 4 4 2 4 5 5 4 5 5
12 12 13 12 13 13 4 2 4 2 3 3 3 3 3 5 4 4 3 2 1 2 2 2 3 3 3 5 7 4 5 3 5 5 4 7 8 4 6 2 4 2 3 1
16 13 13 14 12 9 4 4 2 1 3 8 5 3 2 5 2 3 3 3 2 1 2 3 1 1 2 1 4 7 7 6 4 4 4 8 5 4 3 5 1 1 1 4
15 14 13 13 14 11 4 0 3 2 3 6 4 11 14 11 11 3 3 2 2 4 3 1 1 1 1 1 3 3 4 7 5 8 7 7 4 6 1 1 2 2 2 4
15 15 15 14 13 11 8 3 2 2 2 7 5 9 7 13 12 8 3 1 3 2 2 3 2 2 1 2 5 2 4 2 3 1 6 4 3 2 2 2 1 4 2 6
15 15 15 16 15 13 11 3 3 2 2 5 7 4 6 4 5 5 2 5 4 4 2 2 2 2 2 4 4 2 5 6 2 5 9 2 1 1 0 1 3 4 4 5
16 16 17 18 15 14 6 3 5 5 4 4 7 16 6 3 6 6 5 6 4 2 2 2 3 2 1 3 3 5 4 7 5 6 5 2 2 0 0 3 3 5 7 5
16 18 17 18 18 13 2 4 1 2 6 1 5 5 5 3 7 7 6 3 3 2 3 2 2 2 3 3 3 6 6 4 8 7 3 3 3 4 3 4 5 5 6 6
17 19 19 19 15 1 3 3 3 8 4 3 5 4 3 5 5 2 3 2 2 2 2 2 2 3 4 2 5 4 7 11 16 5 4 4 5 4 5 7 6 8 7 7
18 21 19 13 5 3 3 3 9 7 1 3 4 1 4 3 3 3 2 3 2 2 2 2 3 1 2 5 6 9 10 11 4 7 5 4 7 7 6 6 9 9 8 8
21 16 10 3 1 1 1 5 10 4 3 4 4 1 3 2 3 3 1 2 3 3 3 3 3 2 5 4 8 10 10 6 9 2 5 5 5 7 7 8 8 9 9 9
13 4 1 1 1 5 1 3 2 3 3 4 4 2 3 2 2 2 4 2 2 3 3 3 3 3 2 10 9 8 10 9 7 6 4 1 2 7 8 8 7 8 10 10
4 3 1 2 7 2 3 2 3 3 4 4 3 3 3 3 2 3 0 2 1 2 2 2 2 1 5 11 11 11 11 10 8 7 8 6 6 7 9 8 8 9 10 10
3 3 3 2 2 2 3 3 2 3 1 2 2 2 1 1 1 3 0 2 1 3 1 1 2 2 6 10 13 14 13 13 11 8 6 6 5 7 8 9 10 10 10 12
1 1 2 1 1 3 3 2 2 1 4 3 3 1 1 2 2 3 2 2 3 1 1 2 1 3 7 9 10 12 12 11 11 10 8 5 2 6 8 9 10 13 12 11
1 1 3 3 3 4 2 1 1 0 2 3 2 1 2 1 3 1 3 1 2 1 1 3 1 7 9 9 8 10 12 12 10 8 7 5 4 5 5 9 11 13 13 13
1 2 4 4 2 1 1 1 2 1 2 2 1 1 1 2 2 0 2 1 3 4 3 1 3 6 7 9 10 9 9 9 7 6 4 4 3 5 5 5 7 9 10 11
1 3 3 2 1 1 1 2 2 2 1 0 1 1 1 2 2 2 5 3 4 2 1 3 3 5 7 8 9 9 8 8 6 5 4 0 3 5 5 5 6 8 10 10
3 4 3 1 2 1 3 1 1 2 1 1 1 3 3 1 2 2 2 2 3 1 2 2 3 4 6 6 7 9 8 8 7 5 4 2 2 5 6 7 4 6 7 8
Wind_Direction
358 0 359 358 0 359 33 52 59 307 337 61 332 344 303 303 241 291 22 142 106 151 168 133 182 183 243 187 167 183 164 121 191 222 226 191 163 184 174 149 263 238 197 269
358 0 359 0 357 10 322 55 297 305 358 49 21 284 328 16 1 346 16 40 127 138 169 129 186 101 28 160 155 157 161 273 16 328 23 191 187 207 207 221 260 242 264 265
360 1 3 359 356 353 76 36 25 326 12 225 102 43 5 342 315 5 12 70 118 142 152 154 159 105 63 107 99 160 131 160 170 195 200 107 238 229 210 202 235 270 245 279
3 6 5 360 356 348 95 14 304 263 300 299 203 216 233 347 50 9 18 20 104 141 94 84 107 95 88 59 90 71 99 153 321 277 263 226 220 235 235 236 249 251 279 277
3 5 6 5 2 351 75 34 359 347 284 193 298 172 250 343 32 26 360 93 70 53 87 27 149 127 165 185 145 122 94 254 335 283 259 240 247 245 242 243 251 255 263 275
3 8 5 9 11 15 33 328 303 277 279 292 13 233 187 250 100 354 54 75 93 69 43 48 69 74 88 146 146 162 160 148 161 265 329 323 284 235 229 215 225 244 263 275
357 4 7 7 13 17 310 357 291 320 288 18 238 79 99 111 12 127 344 42 87 183 16 14 18 16 107 149 170 144 139 135 212 283 340 321 232 201 193 215 260 252 260 277
354 354 2 5 10 10 13 330 346 326 289 307 288 128 141 101 86 83 82 43 111 45 25 85 126 219 166 227 169 155 139 150 217 262 245 273 254 210 204 189 284 232 266 291
343 349 349 352 3 8 21 332 298 306 298 200 313 305 185 175 194 347 116 29 22 36 103 114 188 188 99 147 120 179 146 146 191 227 277 257 260 233 131 120 264 199 228 280
327 336 341 340 345 1 28 288 323 268 274 272 21 308 293 178 175 164 139 185 127 68 145 177 191 244 162 173 174 171 172 185 212 212 257 279 253 255 141 292 248 229 241 293
328 333 329 328 330 343 43 266 298 12 289 277 257 297 308 325 80 156 171 72 302 95 171 183 290 143 253 333 163 168 177 169 195 177 217 266 210 119 213 232 291 303 202 156
317 319 320 316 326 324 349 281 297 220 232 272 312 263 252 227 235 305 155 205 142 186 108 130 106 353 354 14 269 224 200 193 186 190 213 234 240 228 32 28 263 292 193 152
316 319 316 313 313 308 303 207 244 274 271 276 253 232 226 208 218 228 188 331 162 79 168 144 97 234 266 245 238 298 290 232 238 249 278 255 204 98 53 14 313 293 151 147
316 314 312 305 303 299 293 182 209 196 271 270 279 255 269 154 167 196 140 130 64 101 72 115 148 212 163 252 278 217 230 347 307 280 285 43 101 102 235 85 85 63 73 136
316 314 304 300 300 291 289 221 212 195 182 304 302 314 234 162 157 140 114 125 117 128 114 148 207 219 159 222 244 238 202 212 198 230 268 225 262 214 280 146 141 127 118 107
323 311 311 308 307 288 225 305 149 239 170 256 265 285 148 149 139 130 134 131 92 120 162 197 224 254 162 259 251 249 234 246 246 259 244 224 156 157 152 139 140 126 115 115
320 316 314 316 309 240 174 204 113 33 79 218 248 214 107 134 111 88 95 71 121 143 185 216 218 218 189 238 260 275 296 293 286 247 201 229 190 211 141 126 110 110 96 96
320 317 313 313 303 120 219 204 144 104 229 255 271 226 120 164 120 119 132 130 149 189 215 179 206 218 212 257 258 291 300 303 306 319 211 196 124 116 123 121 124 120 123 123
326 319 309 7 6 170 72 95 129 135 237 290 272 99 117 160 110 100 119 159 166 175 207 224 150 205 227 254 328 324 341 327 310 67 91 123 134 160 157 148 149 146 145 139
334 23 7 157 79 305 232 142 211 206 211 224 258 278 88 143 124 159 137 185 181 202 204 127 203 249 38 18 341 326 324 316 326 288 302 118 209 185 184 182 171 163 156 145
16 359 349 304 326 236 216 236 218 196 234 214 257 21 117 356 134 131 358 157 155 193 219 199 238 189 346 340 333 328 323 311 291 259 263 251 208 183 176 174 160 147 148 153
193 270 278 267 281 237 240 238 237 237 291 351 9 346 47 62 28 97 140 129 67 225 87 172 245 71 322 334 330 329 329 329 331 336 269 234 209 176 167 157 151 149 136 137
78 193 335 272 210 252 221 224 225 164 348 345 341 350 3 42 32 61 95 152 202 115 141 221 144 294 335 337 330 330 336 342 360 350 343 349 144 142 154 142 133 133 136 145
73 40 274 206 207 248 223 190 172 292 295 338 326 358 92 30 67 118 154 168 92 198 230 229 334 336 324 328 329 335 337 343 352 335 341 10 90 94 111 136 147 146 151 161
238 147 236 212 268 315 329 315 280 270 282 328 342 338 51 34 116 83 110 95 218 216 199 103 270 313 321 327 333 336 337 338 333 329 353 32 76 106 99 115 140 143 150 152
232 235 264 216 308 254 8 302 275 255 316 351 68 352 69 231 156 151 204 197 222 144 144 246 308 321 323 330 332 331 328 330 328 330 332 30 135 149 143 130 140 146 151 150
232 245 217 241 263 261 202 289 342 349 33 187 151 198 180 347 152 222 212 207 100 154 260 252 288 300 309 322 326 332 332 333 334 329 347 329 135 127 128 136 125 121 120 121